Regional Weather Roundup
Issued by NWS Albany, NY

Home | Current Version | Previous Version | Text Only | Print | Product List | Glossary On
Versions: 1 2 3 4 5 6 7 8 9 10 11 12 13 14 15 16 17 18 19 20 21 22 23 24 25 26 27 28
000
ASUS41 KALY 230510
RWRALY

NEW YORK STATE HOURLY WEATHER ROUNDUP
NATIONAL WEATHER SERVICE ALBANY NY
1200 AM EST MON JAN 23 2017

NOTE: "FAIR" INDICATES FEW OR NO CLOUDS BELOW 12,000 FEET WITH NO
SIGNIFICANT WEATHER AND/OR NO OBSTRUCTIONS TO VISIBILITY.

NYZ032-033-038>043-046>054-057>066-NYZ062>081-082-084-230600-
EAST


CITY           SKY/WX    TMP DP  RH WIND       PRES   REMARKS
ALBANY         CLOUDY    37  34  89 CALM      29.91R
GLENS FALLS    CLOUDY    36  33  89 N7        29.91R WCI  30
POUGHKEEPSIE   CLOUDY    41  35  79 E9        29.87R
NEWBURGH       CLOUDY    41  39  93 E16       29.86R
MONTGOMERY     CLOUDY    43  37  79 NE10      29.84R
WHITE PLAINS   MOCLDY    44  39  82 NE10G18   29.83R
ISLIP          CLOUDY    43  41  93 NE20G31   29.82S
NEW YORK CITY  CLOUDY    45  40  82 NE25G35   29.82R
CENTRAL PARK   CLOUDY    44  40  85 E13G23    29.84R
$$

NYZ005>009-017-018-044>046-055-056-230600-
CENTRAL


CITY           SKY/WX    TMP DP  RH WIND       PRES   REMARKS
FULTON         CLOUDY    43  39  87 E5        29.76F
SYRACUSE       CLOUDY    42  39  89 E16       29.76S
ROME           CLOUDY    41  38  89 E13       29.82R
ELMIRA         CLOUDY    44  40  85 NE6       29.71S
BINGHAMTON     CLOUDY    44  42  93 SE13      29.73R
MONTICELLO     CLOUDY    37  36  93 E16G22    29.82R WCI  28
$$

NYZ026>034-041>043-087-230600-
NORTH


CITY           SKY/WX    TMP DP  RH WIND       PRES   REMARKS
WATERTOWN      CLOUDY    35  32  88 NE13      29.82S WCI  26
FORT DRUM      NOT AVBL
OGDENSBURG     CLOUDY    33  30  90 NE9G21    29.89S WCI  25
MASSENA        CLOUDY    32  27  81 NE15G25   29.94F WCI  22
SARANAC LAKE   CLOUDY    31  29  92 NE8       29.82F WCI  23
PLATTSBURGH    CLOUDY    32  31  96 N5        29.95S FOG     WCI  27
$$

NYZ001>004-010>016-019>021-085-230600-
WEST


CITY           SKY/WX    TMP DP  RH WIND       PRES   REMARKS
NIAGARA FALLS  CLOUDY    37  34  89 E14       29.72S FOG     WCI  28
BUFFALO        CLOUDY    37  35  92 NE14      29.71S FOG     WCI  28
DUNKIRK        CLOUDY    42  41  96 NE12      29.64S FOG
JAMESTOWN        N/A     48  45  87 E8        29.62R
WELLSVILLE     CLOUDY    48  46  93 SE7       29.68S FOG
ROCHESTER      CLOUDY    38  36  92 E13       29.76F WCI  30
PENN YAN       FOG       41  38  89 CALM      29.73F VSB 1/4
$$

             KEY
       WCI = WIND CHILL INDEX
       VSB = VISIBILITY
       HX  = HEAT INDEX
$$




USA.gov is the U.S. government's official web portal to all federal, state and local government web resources and services.